User: anonymous   Login
Location: Edemissen
(51.7689°N, 9.8634°E)
Time: 22:59:44
(UTC+00:00)
Language:

STARLINK-5239 - Orbit

View from above orbital plane
View from above orbital plane
View from above satellite
View from above satellite

Ground track
Ground track

The orbit data is extracted from the following two-line orbital elements,

1 54183U 22141AC  25321.94694298 -.00001193  00000-0 -56845-4 0  9993
2 54183  53.2182 145.3704 0001657  88.4349 271.6833 15.08844322168993
Epoch (UTC): 17 November 2025 22:43:35
Eccentricity: 0.0001657
inclination: 53.2182°
perigee height: 538 km
apogee height: 541 km
right ascension of ascending node: 145.3704°
argument of perigee: 88.4349°
revolutions per day: 15.08844322
mean anomaly at epoch: 271.6833°
orbit number at epoch: 16899

The dashed part of the orbit path shows where the satellite is in the earth's shadow,  

DLR